Weather History for Lanai City, HI

Change the Weather History Date:

Friday, October 28, 2011

  Actual Average Record
Temperature  
Mean Temperature 69 °F -  
Max Temperature 75 °F 81 °F 85 °F (1978)
Min Temperature 63 °F 64 °F 60 °F (1950)
Cooling Degree Days 4    
Growing Degree Days 19 (Base 50)    
Moisture  
Dew Point 62 °F    
Average Humidity 76    
Maximum Humidity 93    
Minimum Humidity 61    
Precipitation  
Precipitation 0.00 in - - ()
Sea Level Pressure  
Sea Level Pressure 29.92 in    
Wind  
Wind Speed 6 mph (NE)    
Max Wind Speed 20 mph    
Max Gust Speed -    
Visibility 10 miles    
Events      
Averages and records for this station are not official NWS values.
T = Trace of Precipitation, MM = Missing Value Source: NWS Daily Summary

Daily Weather History Graph

Daily Weather History Graph

Search for Another Location

Airport:

Trip Planner

Search our weather history database for the weather conditions in past years. The results will help you decide how hot, cold, wet, or windy it might be!

Date:

Astronomy

Oct. 28, 2011 Rise Set
Actual Time 6:28 AM HST 5:54 PM HST
Civil Twilight 6:05 AM HST 6:17 PM HST
Nautical Twilight 5:39 AM HST 6:43 PM HST
Astronomical Twilight 5:13 AM HST 7:09 PM HST
Moon 8:35 AM HST (10/28) 7:51 PM HST (10/28)
Length of Visible Light 12h 11m
Length of Day
11h 26m
Waxing Crescent, 6% of the Moon is Illuminated
Oct 28
Waxing Crescent
Nov 2
First Quarter
Nov 10
Full
Nov 18
Last Quarter
Nov 24
New

Hourly Weather History & Observations

Time (HST) Temp. Dew Point Humidity Pressure Visibility Wind Dir Wind Speed Gust Speed Precip Events Conditions
12:56 AM 66.9 °F 61.9 °F 84% 29.93 in 10.0 mi Calm Calm - N/A   Clear
1:56 AM 63.0 °F 61.0 °F 93% 29.93 in 10.0 mi ENE 5.8 mph - N/A   Clear
2:56 AM 63.0 °F 59.9 °F 90% 29.91 in 10.0 mi Calm Calm - N/A   Clear
3:56 AM 65.8 °F 61.9 °F 87% 29.90 in 10.0 mi NNE 8.1 mph - N/A   Clear
4:56 AM 64.9 °F 61.0 °F 87% 29.91 in 10.0 mi ENE 10.4 mph - N/A   Clear
5:56 AM 65.8 °F 61.0 °F 84% 29.91 in 10.0 mi East 6.9 mph - N/A   Clear
6:56 AM 63.9 °F 59.9 °F 87% 29.92 in 10.0 mi ENE 6.9 mph - N/A   Clear
7:56 AM 68.9 °F 63.0 °F 81% 29.94 in 10.0 mi NE 5.8 mph - N/A   Clear
8:56 AM 72.0 °F 63.0 °F 73% 29.94 in 10.0 mi Calm Calm - N/A   Clear
9:56 AM 75.9 °F 61.9 °F 62% 29.94 in 10.0 mi NE 8.1 mph - N/A   Partly Cloudy
10:56 AM 74.8 °F 61.0 °F 62% 29.93 in 10.0 mi NE 13.8 mph - N/A   Clear
11:35 AM 73.4 °F 60.8 °F 65% 29.98 in 10.0 mi Variable 5.8 mph - N/A   Mostly Cloudy
11:56 AM 72.9 °F 61.9 °F 68% 29.92 in 10.0 mi Calm Calm - N/A   Mostly Cloudy
12:19 PM 75.2 °F 64.4 °F 69% 29.96 in 10.0 mi South 8.1 mph - N/A   Scattered Clouds
12:56 PM 72.0 °F 61.9 °F 70% 29.90 in 10.0 mi Calm Calm - N/A   Overcast
1:56 PM 75.2 °F 62.6 °F 65% 29.93 in 10.0 mi SSW 5.8 mph - N/A   Mostly Cloudy
2:08 PM 75.2 °F 62.6 °F 65% 29.92 in 10.0 mi SSE 6.9 mph - N/A   Mostly Cloudy
2:38 PM 75.2 °F 62.6 °F 65% 29.92 in 10.0 mi Calm Calm - N/A   Mostly Cloudy
2:56 PM 73.9 °F 63.0 °F 68% 29.88 in 10.0 mi West 6.9 mph - N/A   Overcast
3:48 PM 75.2 °F 60.8 °F 61% 29.92 in 10.0 mi NE 10.4 mph - N/A   Mostly Cloudy
3:56 PM 74.8 °F 61.0 °F 62% 29.87 in 10.0 mi NNE 10.4 mph - N/A   Scattered Clouds
4:56 PM 72.9 °F 61.9 °F 68% 29.88 in 10.0 mi NE 17.3 mph - N/A   Partly Cloudy
5:56 PM 70.0 °F 63.0 °F 78% 29.89 in 10.0 mi NE 19.6 mph - N/A   Clear
6:56 PM 68.9 °F 63.0 °F 81% 29.91 in 10.0 mi NE 13.8 mph - N/A   Clear
7:56 PM 65.8 °F 61.0 °F 84% 29.93 in 10.0 mi East 8.1 mph - N/A   Clear
8:56 PM 63.9 °F 59.0 °F 84% 29.94 in 10.0 mi ENE 5.8 mph - 0.00 in   Clear
9:56 PM 65.8 °F 61.9 °F 87% 29.94 in 10.0 mi NNE 8.1 mph - N/A   Clear
10:56 PM 65.8 °F 61.0 °F 84% 29.95 in 10.0 mi NNE 6.9 mph - N/A   Clear
11:56 PM 65.8 °F 61.9 °F 87% 29.94 in 10.0 mi NNE 8.1 mph - N/A   Clear